Temp
-13 -13 -13 -13 -13 -13 -12 -12 -12 -12 -11 -11 -10 -10 -10 -10 -10 -10 -9 -9 -9 -9 -9 -10 -10 -10 -10 -10 -10 -10 -10 -10 -10 -10 -10 -11 -11 -11 -11 -11 -12 -12 -12
-14 -13 -13 -13 -13 -13 -13 -12 -12 -12 -11 -11 -11 -10 -10 -10 -10 -10 -10 -9 -9 -10 -10 -10 -10 -10 -10 -10 -10 -10 -10 -10 -10 -10 -10 -10 -11 -11 -12 -12 -12 -12 -12
-14 -14 -13 -13 -13 -13 -13 -13 -12 -12 -12 -11 -11 -11 -11 -11 -10 -10 -10 -10 -10 -10 -10 -10 -10 -10 -10 -10 -11 -10 -10 -10 -11 -11 -11 -11 -11 -11 -11 -12 -13 -13 -13
-14 -14 -14 -14 -13 -13 -13 -13 -13 -13 -12 -12 -12 -12 -11 -11 -11 -10 -10 -10 -10 -10 -11 -11 -11 -11 -11 -11 -11 -11 -11 -11 -11 -11 -11 -11 -11 -11 -11 -12 -13 -13 -13
-14 -14 -14 -14 -14 -14 -14 -13 -13 -13 -13 -13 -13 -12 -12 -12 -11 -11 -11 -11 -11 -11 -11 -11 -11 -11 -11 -11 -11 -11 -12 -12 -12 -12 -12 -12 -11 -12 -12 -12 -12 -13 -13
-14 -14 -14 -14 -14 -14 -14 -14 -14 -13 -13 -13 -13 -13 -12 -12 -12 -12 -11 -11 -11 -11 -11 -11 -11 -11 -12 -12 -12 -12 -12 -12 -12 -12 -12 -12 -12 -12 -12 -12 -13 -13 -13
-15 -14 -14 -13 -14 -14 -14 -14 -14 -13 -13 -13 -13 -13 -13 -12 -12 -12 -12 -11 -11 -11 -11 -11 -12 -12 -12 -12 -12 -12 -12 -12 -12 -12 -12 -12 -12 -12 -12 -13 -13 -13 -13
-15 -14 -14 -13 -13 -14 -14 -14 -13 -13 -13 -13 -13 -13 -13 -13 -12 -12 -12 -12 -12 -12 -12 -12 -12 -13 -12 -13 -12 -12 -12 -12 -12 -12 -12 -12 -12 -13 -13 -13 -13 -13 -14
-14 -14 -14 -14 -14 -15 -14 -14 -14 -14 -14 -13 -13 -13 -13 -13 -12 -12 -12 -12 -12 -12 -13 -13 -13 -13 -13 -13 -13 -13 -13 -13 -13 -12 -12 -13 -13 -13 -13 -13 -13 -14 -14
-15 -15 -15 -15 -14 -14 -14 -14 -14 -14 -14 -14 -14 -13 -13 -13 -13 -12 -12 -13 -13 -13 -13 -13 -13 -13 -13 -13 -13 -13 -13 -13 -13 -13 -13 -13 -13 -13 -14 -14 -14 -14 -14
-16 -16 -16 -15 -14 -14 -14 -15 -15 -15 -14 -14 -14 -13 -13 -13 -13 -13 -13 -13 -13 -13 -13 -13 -13 -13 -13 -13 -13 -13 -13 -13 -13 -13 -13 -13 -14 -14 -14 -15 -15 -15 -15
-16 -16 -16 -16 -16 -15 -15 -15 -15 -15 -15 -14 -14 -14 -13 -13 -13 -13 -13 -13 -14 -14 -14 -14 -14 -13 -14 -14 -13 -13 -13 -13 -13 -14 -14 -14 -14 -14 -15 -15 -15 -15 -15
-16 -16 -16 -16 -16 -16 -16 -16 -16 -15 -15 -15 -14 -14 -14 -14 -14 -14 -14 -14 -14 -14 -14 -14 -14 -14 -14 -14 -13 -13 -13 -14 -14 -14 -14 -15 -15 -15 -15 -15 -16 -16 -16
-16 -16 -17 -17 -17 -17 -17 -16 -16 -16 -16 -16 -16 -16 -15 -15 -15 -14 -14 -15 -15 -15 -14 -14 -14 -14 -14 -14 -14 -14 -14 -14 -15 -15 -15 -15 -15 -16 -16 -16 -16 -16 -16
-17 -17 -17 -17 -17 -17 -17 -18 -18 -17 -17 -16 -16 -16 -16 -16 -16 -15 -15 -15 -15 -15 -15 -15 -15 -15 -14 -14 -14 -15 -15 -15 -15 -15 -15 -16 -16 -16 -16 -17 -17 -17 -17
-17 -17 -18 -18 -18 -18 -18 -18 -18 -18 -18 -18 -17 -17 -17 -16 -16 -16 -16 -16 -16 -16 -15 -16 -15 -16 -15 -15 -15 -15 -15 -15 -16 -16 -16 -16 -16 -17 -17 -17 -17 -17 -17
-18 -18 -18 -18 -18 -19 -19 -19 -18 -18 -18 -18 -18 -18 -18 -18 -18 -17 -17 -17 -16 -16 -16 -16 -16 -16 -16 -16 -16 -16 -16 -16 -16 -16 -17 -17 -17 -17 -17 -17 -17 -18 -18
-17 -18 -18 -19 -19 -19 -19 -19 -19 -19 -18 -18 -18 -18 -18 -18 -18 -18 -18 -17 -17 -17 -17 -17 -16 -16 -16 -16 -16 -16 -17 -17 -17 -17 -17 -17 -17 -18 -18 -18 -18 -18 -18
-18 -18 -18 -18 -18 -19 -19 -19 -19 -19 -19 -19 -18 -19 -19 -18 -18 -18 -18 -18 -18 -17 -17 -17 -17 -16 -16 -17 -17 -17 -17 -17 -17 -17 -17 -18 -18 -18 -18 -18 -18 -18 -18
-17 -18 -18 -18 -19 -19 -19 -19 -19 -19 -19 -19 -19 -19 -19 -19 -19 -19 -19 -18 -18 -17 -17 -17 -17 -17 -17 -17 -17 -17 -17 -18 -18 -17 -18 -18 -18 -18 -18 -18 -18 -18 -18
-19 -19 -18 -19 -19 -19 -19 -19 -19 -19 -19 -20 -20 -19 -19 -19 -19 -19 -19 -18 -18 -18 -18 -18 -17 -18 -17 -17 -18 -18 -18 -18 -18 -18 -18 -19 -19 -19 -19 -18 -18 -18 -19
-19 -19 -19 -19 -19 -19 -19 -19 -19 -19 -19 -19 -19 -19 -19 -18 -19 -19 -19 -19 -18 -18 -18 -18 -18 -18 -18 -18 -18 -18 -18 -18 -18 -18 -18 -19 -19 -19 -19 -19 -19 -19 -19
-19 -19 -19 -19 -19 -19 -19 -19 -19 -19 -19 -19 -19 -19 -19 -19 -19 -19 -19 -19 -19 -18 -18 -18 -18 -18 -18 -18 -18 -18 -18 -18 -18 -18 -18 -18 -19 -19 -19 -19 -19 -19 -19
-19 -19 -19 -19 -19 -19 -19 -19 -19 -19 -19 -19 -19 -19 -19 -19 -19 -19 -19 -19 -19 -19 -18 -18 -19 -19 -19 -18 -18 -18 -18 -18 -18 -18 -18 -18 -19 -19 -19 -19 -19 -19 -19
-20 -20 -19 -19 -19 -19 -19 -19 -19 -20 -20 -19 -19 -19 -19 -19 -19 -19 -19 -19 -19 -19 -19 -19 -19 -19 -19 -19 -19 -19 -19 -18 -18 -18 -18 -19 -19 -19 -19 -20 -20 -20 -20
-20 -20 -20 -20 -20 -20 -20 -20 -19 -20 -19 -20 -19 -19 -19 -19 -19 -19 -19 -19 -19 -19 -19 -19 -19 -19 -19 -19 -19 -19 -19 -19 -19 -18 -19 -19 -19 -20 -20 -20 -20 -20 -20
Height
5794 5800 5805 5810 5815 5818 5822 5826 5829 5833 5837 5840 5843 5846 5847 5848 5849 5850 5851 5851 5852 5852 5851 5851 5849 5848 5847 5846 5844 5842 5839 5837 5834 5831 5829 5825 5821 5817 5813 5810 5806 5802 5799
5787 5793 5798 5803 5807 5812 5816 5819 5822 5826 5829 5833 5835 5838 5839 5841 5843 5843 5844 5844 5844 5844 5844 5843 5842 5841 5840 5838 5836 5834 5831 5829 5826 5823 5821 5818 5815 5810 5806 5802 5798 5795 5791
5780 5786 5791 5795 5800 5804 5808 5813 5816 5819 5822 5825 5828 5830 5832 5833 5835 5836 5836 5836 5836 5836 5836 5835 5835 5833 5832 5830 5828 5826 5824 5821 5819 5814 5812 5808 5807 5803 5800 5795 5790 5787 5783
5769 5776 5781 5786 5792 5797 5801 5805 5808 5811 5814 5817 5820 5822 5824 5825 5826 5827 5828 5828 5828 5828 5827 5827 5826 5825 5823 5822 5820 5818 5816 5813 5810 5807 5803 5799 5797 5794 5792 5788 5782 5778 5774
5760 5766 5772 5777 5782 5788 5792 5796 5799 5802 5805 5808 5810 5813 5814 5816 5817 5818 5819 5819 5819 5819 5819 5818 5817 5816 5814 5813 5811 5809 5806 5804 5801 5798 5795 5792 5788 5785 5781 5779 5775 5771 5766
5753 5757 5762 5769 5774 5778 5782 5786 5788 5791 5795 5798 5800 5803 5805 5806 5808 5809 5810 5810 5810 5810 5810 5809 5808 5806 5805 5803 5801 5799 5796 5794 5791 5789 5786 5782 5779 5776 5771 5768 5766 5763 5759
5743 5748 5754 5760 5764 5767 5770 5773 5777 5780 5783 5787 5790 5792 5794 5796 5798 5799 5800 5800 5800 5800 5799 5798 5798 5796 5795 5794 5791 5788 5786 5783 5781 5779 5776 5773 5769 5765 5762 5759 5756 5754 5751
5736 5741 5746 5749 5753 5757 5760 5764 5767 5770 5773 5775 5778 5780 5783 5785 5786 5787 5788 5788 5788 5788 5788 5787 5786 5786 5784 5783 5781 5779 5776 5774 5771 5769 5766 5762 5758 5755 5752 5749 5747 5744 5741
5728 5732 5735 5739 5742 5746 5750 5754 5757 5760 5763 5766 5768 5770 5771 5773 5774 5775 5776 5776 5776 5776 5776 5775 5775 5774 5773 5772 5771 5769 5767 5764 5762 5758 5755 5752 5748 5745 5742 5739 5737 5734 5733
5718 5722 5725 5730 5733 5737 5740 5743 5747 5750 5753 5755 5757 5759 5760 5762 5763 5764 5764 5764 5765 5765 5764 5764 5763 5763 5762 5761 5760 5759 5757 5754 5751 5748 5744 5741 5738 5735 5732 5730 5727 5725 5723
5710 5712 5716 5720 5723 5726 5729 5733 5737 5740 5742 5744 5746 5747 5749 5750 5751 5752 5753 5753 5754 5754 5754 5753 5753 5752 5752 5751 5750 5748 5746 5743 5740 5737 5734 5731 5729 5726 5723 5721 5719 5716 5714
5703 5705 5708 5711 5713 5715 5719 5723 5726 5728 5731 5733 5735 5737 5738 5739 5741 5742 5742 5743 5743 5743 5743 5743 5743 5742 5741 5740 5739 5737 5734 5731 5728 5726 5723 5722 5719 5717 5714 5712 5709 5706 5704
5697 5698 5699 5702 5705 5708 5710 5712 5714 5717 5720 5722 5723 5725 5726 5728 5730 5731 5732 5732 5732 5732 5732 5732 5732 5731 5730 5729 5727 5725 5722 5720 5718 5716 5714 5712 5710 5708 5705 5702 5700 5697 5695
5690 5691 5693 5694 5696 5698 5701 5703 5705 5707 5709 5711 5713 5714 5715 5717 5718 5719 5720 5721 5721 5721 5721 5721 5721 5720 5719 5717 5715 5714 5712 5710 5708 5707 5705 5703 5701 5698 5695 5693 5691 5688 5685
5683 5684 5685 5685 5687 5689 5691 5693 5694 5696 5698 5699 5701 5703 5704 5705 5706 5707 5707 5708 5709 5710 5710 5710 5709 5708 5708 5706 5704 5703 5702 5700 5699 5698 5696 5694 5692 5690 5687 5684 5682 5679 5675
5677 5676 5676 5678 5679 5680 5681 5684 5685 5686 5687 5688 5689 5691 5692 5693 5694 5694 5695 5696 5697 5698 5698 5698 5697 5696 5695 5694 5694 5693 5692 5691 5690 5689 5687 5685 5684 5681 5679 5677 5674 5670 5667
5669 5669 5669 5671 5672 5673 5674 5676 5677 5678 5678 5678 5678 5678 5679 5681 5682 5683 5684 5685 5685 5685 5686 5686 5685 5685 5685 5684 5684 5684 5683 5681 5681 5681 5679 5677 5676 5674 5671 5668 5665 5662 5659
5660 5661 5662 5663 5663 5664 5665 5666 5666 5667 5667 5667 5667 5667 5668 5669 5670 5671 5672 5673 5674 5674 5674 5675 5675 5675 5675 5675 5674 5674 5674 5673 5673 5672 5671 5670 5668 5666 5663 5661 5658 5655 5652
5653 5653 5654 5654 5654 5655 5656 5656 5656 5657 5657 5657 5657 5658 5659 5660 5660 5660 5660 5661 5662 5663 5665 5665 5665 5665 5665 5666 5666 5665 5666 5666 5665 5664 5663 5662 5660 5658 5656 5653 5651 5648 5645
5645 5646 5648 5647 5647 5649 5650 5650 5649 5649 5649 5648 5649 5650 5651 5651 5652 5652 5652 5653 5654 5655 5656 5656 5657 5657 5657 5658 5657 5658 5658 5658 5658 5657 5656 5654 5652 5650 5648 5645 5642 5639 5636
5639 5640 5641 5641 5641 5641 5642 5643 5643 5643 5643 5643 5643 5643 5643 5644 5644 5644 5644 5645 5646 5647 5647 5648 5649 5649 5649 5650 5650 5651 5651 5650 5650 5649 5648 5646 5644 5641 5639 5636 5633 5630 5627
5630 5631 5632 5633 5633 5633 5634 5635 5636 5637 5637 5637 5637 5636 5636 5636 5636 5637 5637 5638 5639 5639 5639 5640 5641 5642 5642 5643 5643 5643 5643 5642 5642 5641 5640 5638 5635 5633 5630 5627 5624 5621 5618
5621 5622 5623 5624 5625 5626 5627 5628 5629 5630 5630 5630 5630 5630 5630 5630 5630 5630 5631 5631 5632 5632 5633 5633 5634 5635 5636 5636 5635 5635 5634 5634 5633 5632 5631 5629 5626 5624 5621 5618 5615 5612 5609
5614 5615 5615 5616 5617 5619 5620 5621 5621 5622 5622 5623 5623 5623 5622 5622 5622 5623 5623 5623 5624 5625 5626 5627 5627 5627 5628 5628 5627 5626 5626 5626 5625 5623 5622 5620 5617 5615 5612 5609 5606 5603 5600
5606 5607 5608 5609 5611 5611 5612 5613 5614 5615 5615 5616 5616 5616 5616 5615 5615 5615 5616 5616 5616 5617 5618 5618 5619 5619 5619 5619 5618 5618 5617 5617 5616 5614 5612 5610 5608 5605 5602 5600 5597 5593 5589
5599 5600 5601 5602 5603 5603 5604 5606 5607 5607 5608 5608 5608 5608 5608 5608 5608 5607 5607 5607 5608 5608 5609 5609 5610 5610 5610 5610 5609 5609 5608 5607 5606 5605 5603 5600 5598 5595 5593 5590 5587 5583 5579
Wind_Speed
54 50 49 48 44 42 45 46 44 45 44 42 40 39 39 39 38 37 37 36 36 36 35 35 36 37 37 38 38 39 41 42 43 43 44 45 43 41 43 44 46 46 42
52 50 50 49 49 45 42 43 44 44 45 43 43 42 42 42 41 40 40 39 39 39 38 38 39 39 40 41 42 43 44 45 46 46 48 47 42 42 44 46 45 44 42
54 54 52 50 49 50 47 44 44 45 45 44 44 43 43 44 44 44 43 43 43 42 42 42 43 43 43 43 44 45 46 47 47 52 50 48 42 42 44 43 43 40 38
55 53 54 57 54 52 50 49 49 49 50 49 48 48 48 48 48 47 46 46 45 45 45 46 46 46 46 46 46 46 48 49 53 48 49 45 44 46 45 43 41 40 37
60 55 55 54 55 56 52 53 55 55 53 51 50 51 50 50 49 49 48 48 48 48 49 50 50 49 48 49 47 48 50 55 50 49 44 43 45 45 45 43 41 39 37
66 57 56 56 55 51 55 57 58 60 59 57 54 53 53 54 53 53 54 54 53 53 53 53 51 50 51 50 50 53 52 47 45 41 42 45 46 45 45 43 39 37 36
56 50 48 50 51 52 51 54 55 56 55 54 54 56 58 59 58 56 55 55 55 55 55 54 53 52 51 52 53 50 47 44 41 43 45 47 47 45 43 41 38 36 33
40 51 51 54 54 55 51 50 50 49 49 50 50 50 52 54 54 55 55 55 55 56 56 55 54 54 52 51 48 45 42 41 42 46 47 46 45 43 42 40 38 36 35
45 44 46 49 53 53 53 53 53 50 49 49 51 51 52 52 52 52 53 54 55 56 57 56 54 53 50 46 45 42 41 43 46 45 44 44 42 41 39 38 37 36 35
30 36 40 42 53 56 57 56 56 53 53 49 49 50 51 52 53 55 56 57 57 56 55 53 51 49 46 45 43 42 43 42 43 43 43 41 39 38 37 36 37 38 38
25 28 34 43 47 56 56 55 54 53 53 53 53 52 51 51 53 54 55 54 52 50 49 46 44 43 42 42 42 42 44 46 44 42 39 38 37 36 37 37 39 40 41
25 29 31 36 41 46 50 61 62 56 57 56 56 55 54 53 53 53 52 51 49 47 46 44 43 42 41 42 42 45 46 43 41 38 37 36 36 38 39 39 40 39 39
22 27 33 35 38 42 47 51 53 54 55 56 57 57 56 54 55 54 53 51 48 46 44 44 42 42 42 43 45 45 43 40 38 36 36 36 38 39 39 38 37 37 38
25 26 28 32 37 40 42 46 50 54 56 56 56 55 53 54 54 54 54 50 47 45 42 41 41 42 43 45 44 42 40 38 36 36 37 36 37 35 34 34 34 35 37
28 29 30 31 33 38 40 40 42 44 46 49 51 51 52 51 50 49 48 47 46 44 44 39 40 40 41 42 40 38 38 36 37 36 35 33 33 33 32 32 35 36 37
29 31 32 31 34 37 40 41 42 43 44 45 46 47 47 46 46 45 43 41 43 41 39 41 45 47 41 37 38 38 37 36 34 32 31 29 30 30 31 32 33 33 33
33 31 31 31 31 34 37 40 41 43 45 46 47 47 46 47 44 44 39 40 40 40 45 47 40 39 40 38 37 36 32 29 28 29 29 28 27 27 29 30 30 28 28
36 29 29 31 33 34 35 36 37 39 40 41 44 47 44 43 43 42 44 44 48 52 41 39 38 37 36 35 29 28 27 27 27 26 26 26 27 27 27 29 31 31 31
30 31 29 30 32 30 28 32 37 40 40 37 34 37 37 34 33 34 35 32 32 33 36 35 35 32 30 28 27 26 26 25 25 25 25 26 26 26 29 30 32 33 33
26 24 24 25 26 25 25 24 23 23 22 29 27 32 28 28 29 34 37 35 32 32 30 28 30 30 29 27 25 25 25 24 25 24 25 25 26 28 30 32 32 32 33
26 25 23 23 24 25 27 24 25 23 22 21 23 26 30 33 29 29 29 29 29 30 30 30 30 28 26 25 25 25 25 25 25 25 25 26 27 29 31 32 32 32 33
27 27 26 25 25 25 26 27 28 25 25 23 24 26 24 25 26 26 26 26 26 26 26 26 26 26 25 25 25 25 26 26 26 27 28 29 30 30 32 32 31 30 30
26 26 27 28 28 27 26 25 24 25 27 26 26 28 30 30 30 27 25 24 25 26 25 25 26 27 28 27 26 27 26 26 27 28 30 31 31 32 33 32 31 32 34
24 23 24 26 27 27 27 26 27 28 26 25 25 24 23 26 30 29 27 25 25 25 26 27 28 29 30 29 28 27 27 28 29 30 32 32 33 34 34 33 35 36 37
21 22 23 23 24 24 25 26 25 26 27 26 25 25 25 24 27 29 28 28 28 27 28 29 31 31 31 31 30 29 28 29 30 30 32 34 35 35 35 36 37 37 35
26 26 26 25 27 28 27 27 29 32 27 29 27 27 27 27 26 27 32 32 30 31 32 32 32 32 32 32 31 30 29 29 31 31 32 34 35 36 36 36 37 37 38
Wind_Direction
226 225 226 230 231 235 231 234 234 239 242 244 246 249 249 252 256 260 263 266 269 274 277 280 284 287 288 288 290 291 292 293 295 296 300 301 302 301 302 304 303 302 301
226 227 230 230 231 234 236 238 239 243 244 247 250 252 255 258 260 264 267 270 273 275 278 281 283 285 287 289 290 291 293 294 296 297 300 300 298 300 301 302 299 297 298
231 230 233 234 234 236 237 239 241 246 248 250 252 254 256 259 262 265 267 270 273 276 279 281 283 285 286 286 288 291 293 294 298 299 298 297 296 298 300 297 293 294 292
233 233 233 234 238 236 240 241 244 249 252 254 256 257 258 260 262 264 267 271 275 277 279 281 282 284 285 286 288 288 288 291 296 295 295 294 296 297 298 295 293 293 291
235 234 239 238 236 237 241 244 245 246 248 252 257 260 261 262 264 266 269 271 272 273 275 277 279 281 284 285 285 285 288 291 291 293 290 293 295 296 294 292 291 290 290
236 236 237 238 238 240 240 243 248 248 249 251 252 255 257 259 261 263 265 266 269 271 273 275 277 279 281 282 283 285 289 290 289 289 292 295 295 294 293 291 289 287 288
228 225 228 238 246 247 245 244 247 249 250 251 252 253 255 257 259 260 262 265 268 270 272 274 276 278 278 280 284 285 286 288 287 292 295 296 295 293 291 290 288 287 285
239 235 240 243 242 243 243 243 244 246 247 249 250 253 255 257 260 263 264 266 268 270 272 273 274 278 280 281 282 284 284 285 289 291 294 292 292 291 290 290 288 286 286
247 239 237 240 241 242 243 243 245 248 247 251 253 254 257 259 261 264 266 268 269 270 271 274 276 277 279 280 283 282 283 289 292 292 292 291 289 289 288 288 286 284 284
235 237 237 240 240 240 242 243 244 245 249 250 252 255 257 259 261 263 265 266 269 271 274 276 276 277 278 279 279 280 286 289 290 290 289 286 285 285 286 286 284 283 284
239 234 235 233 234 238 237 238 241 242 246 250 252 253 255 257 259 261 263 265 268 271 273 275 276 276 275 274 276 281 287 288 289 286 284 284 284 285 285 284 283 283 285
247 243 243 241 243 243 240 241 241 244 248 250 252 253 254 256 258 260 261 263 265 268 270 273 274 274 273 275 279 287 288 285 283 282 282 283 284 285 285 285 284 286 286
256 249 240 236 240 244 248 249 248 246 248 253 256 257 258 259 260 261 262 263 266 267 270 273 274 274 275 278 284 283 282 281 280 280 281 283 286 285 286 287 287 287 289
271 264 254 245 241 240 243 247 251 255 256 258 260 261 261 261 261 264 265 267 268 269 270 271 272 273 276 280 280 280 279 278 278 280 283 285 285 285 287 289 289 291 293
269 271 263 254 248 246 246 246 248 251 253 257 262 265 267 268 269 271 271 269 270 268 271 269 269 274 277 278 277 276 276 276 278 282 283 283 285 287 288 290 293 295 297
273 275 266 258 253 249 249 253 255 257 259 261 261 261 263 265 265 266 268 263 266 264 259 261 269 274 272 274 274 274 276 279 283 281 281 285 287 290 291 293 294 296 298
267 267 264 260 258 257 255 254 256 259 260 262 259 258 258 261 260 263 261 260 256 259 265 272 271 271 271 271 272 275 276 275 275 278 281 283 286 290 292 293 297 302 306
262 261 260 260 261 261 260 260 262 263 264 268 268 261 262 264 263 255 255 255 259 264 267 269 268 267 267 268 269 269 269 271 274 276 280 283 283 286 290 296 298 297 298
250 255 262 264 257 258 264 263 262 264 263 269 268 260 262 263 264 262 260 262 262 263 263 263 263 263 263 263 262 266 269 270 273 275 278 278 281 287 293 295 295 294 295
251 251 250 261 255 255 260 264 262 260 265 260 262 257 258 260 261 265 259 263 264 264 259 262 265 262 259 260 262 263 265 267 271 274 276 280 285 289 292 294 296 297 297
248 248 250 254 260 257 254 261 260 263 268 268 264 259 260 261 259 265 262 264 261 258 262 263 259 259 258 258 258 260 262 265 270 275 279 283 286 291 295 297 300 300 300
251 250 249 249 253 255 253 255 256 257 260 262 263 272 268 262 262 265 263 259 259 256 255 255 255 253 254 256 258 261 264 267 273 277 279 282 287 292 295 298 299 301 301
251 252 250 248 248 251 252 252 257 259 259 262 265 272 268 267 266 261 258 260 258 258 254 254 254 257 259 260 263 263 265 269 273 277 280 283 288 291 295 296 296 298 300
254 253 248 248 249 251 252 253 254 255 257 260 267 272 272 270 262 258 254 254 256 258 259 260 260 262 264 264 266 267 269 271 274 278 281 285 289 291 294 292 294 297 301
251 251 248 248 251 253 256 254 248 252 254 257 262 270 269 272 267 258 256 257 257 258 261 263 264 265 264 265 267 269 271 274 278 282 286 289 290 292 293 292 294 298 299
254 255 254 253 252 254 253 252 256 246 251 257 266 270 271 268 271 274 265 259 260 263 264 264 264 265 266 266 268 267 271 277 282 286 289 290 290 290 291 292 294 296 298